DateTimeUTC,F1_A11,F1_S11,BsB_S11,BsG_S11,BsR_S11,BbsB_S11,BbsG_S11,BbsR_S11,BaB_A11,BaG_A11,BaR_A11,Tu_S11,T_S11,Uu_S11,U_S11,P_S11,T1_A11
2021-01-25T15:00:00Z,00000200,21000000,,,,,,,-000.16,-000.18,0000.17,15.9,22.9,,00.0,0645.1,30.9
2021-01-25T15:01:00Z,00000200,21000000,,,,,,,-000.15,0000.14,-000.29,15.9,22.9,,00.0,0645.1,30.9
2021-01-25T15:02:00Z,00000200,21000000,,,,,,,-000.37,-000.36,-000.20,15.9,23.0,,00.0,0645.0,30.9
2021-01-25T15:03:00Z,00000200,61000000,,,,,,,0000.28,0000.06,-000.11,15.9,23.0,,00.0,0645.0,30.9
2021-01-25T15:04:00Z,00000200,41000000,0000.42,0000.26,0000.09,0000.06,-000.23,0000.15,-000.21,0000.05,0000.07,16.2,22.9,,00.0,0646.0,30.9
2021-01-25T15:05:00Z,00000200,01000000,0000.38,-000.04,-000.24,0000.23,0000.00,-000.12,0000.36,0000.07,0000.06,16.3,22.8,,00.0,0646.1,30.9
2021-01-25T15:06:00Z,00000200,01000000,0000.47,0000.11,0000.07,-000.21,0000.03,0000.21,-000.32,0000.03,0000.25,16.3,22.9,,00.0,0646.0,30.9
2021-01-25T15:07:00Z,00000200,01000000,0000.18,0000.23,-000.14,-000.36,0000.20,0000.07,0000.04,-000.06,-000.10,16.3,22.9,,00.0,0646.0,30.9
2021-01-25T15:08:00Z,00000200,01000000,0000.47,0000.19,-000.20,0000.22,0000.23,-000.03,0000.67,0000.50,0000.26,16.3,22.9,,00.0,0646.0,31.0
2021-01-25T15:09:00Z,00000200,01000000,0000.35,0000.32,-000.31,0000.26,0000.01,-000.13,-000.38,0000.19,0000.07,16.3,22.9,,00.0,0645.9,31.0
2021-01-25T15:10:00Z,00000200,01000000,-000.09,-000.11,0000.12,-000.21,0000.19,-000.08,0000.43,0000.10,0000.19,16.3,22.9,,00.0,0645.8,31.0
2021-01-25T15:11:00Z,00000200,01000000,0000.64,-000.11,0000.20,0000.04,0000.09,0000.07,0000.42,0000.48,0000.24,16.4,22.9,,00.0,0645.7,31.0
2021-01-25T15:12:00Z,00000200,01000000,-000.04,0000.20,-000.12,0000.22,0000.23,-000.04,0000.52,-000.18,0000.07,16.4,22.9,,00.0,0645.7,31.0
2021-01-25T15:13:00Z,00000200,01000000,0000.24,0000.15,-000.16,-000.15,-000.02,0000.03,-000.42,0000.25,0000.33,16.4,22.9,,00.0,0645.7,31.0
2021-01-25T15:14:00Z,00000200,01000000,0000.42,0000.10,-000.09,-000.16,0000.10,-000.00,0000.57,0000.16,-000.13,16.4,23.0,,00.0,0645.6,31.0
2021-01-25T15:15:00Z,00000200,01000000,-000.27,0000.02,-000.21,0000.14,0000.08,-000.20,0000.09,0000.17,0000.09,16.4,23.0,,00.0,0645.7,31.0
2021-01-25T15:16:00Z,00000200,01000000,0000.41,0000.07,-000.17,0000.14,0000.15,-000.12,0000.01,0000.16,0000.04,16.5,23.0,,00.0,0645.7,31.0
2021-01-25T15:17:00Z,00000200,01000000,0000.66,0000.17,-000.04,-000.08,0000.02,0000.31,0000.07,0000.15,-000.35,16.5,23.0,,00.0,0645.8,31.0
2021-01-25T15:18:00Z,00000200,01000000,0000.17,0000.16,-000.17,-000.05,-000.18,0000.20,-000.41,-000.36,0000.32,16.5,23.0,,00.0,0645.9,31.0
2021-01-25T15:19:00Z,00000200,01000000,0000.96,0000.28,-000.21,-000.07,0000.02,0000.22,0000.47,0000.06,-000.01,16.5,23.1,,00.0,0646.0,31.0
2021-01-25T15:20:00Z,00000200,01000000,-000.32,0000.05,0000.04,0000.21,0000.20,0000.07,-000.31,0000.45,0000.27,16.5,23.1,,00.0,0646.0,31.0
2021-01-25T15:21:00Z,00000200,01000000,0000.50,0000.02,-000.43,0000.33,-000.24,-000.32,-000.11,-000.50,0000.13,16.6,23.1,,00.0,0646.0,31.0
2021-01-25T15:22:00Z,00000200,01000000,-000.04,0000.02,0000.19,-000.02,-000.16,0000.22,0000.50,0000.16,-000.07,16.6,23.1,,00.0,0646.0,31.0
2021-01-25T15:23:00Z,00000200,01000000,-000.66,0000.29,-000.25,-000.40,-000.05,0000.02,-000.25,0000.32,-000.19,16.6,23.2,,00.0,0646.0,31.0
2021-01-25T15:24:00Z,00000200,01000000,0000.49,0000.07,-000.17,-000.15,-000.09,0000.14,-000.15,-000.04,0000.19,16.6,23.2,,00.0,0646.1,31.0
2021-01-25T15:25:00Z,00000200,01000000,0000.03,-000.17,0000.00,0000.16,-000.07,-000.08,-000.02,-000.68,-000.04,16.6,23.2,,00.0,0646.1,31.0
2021-01-25T15:26:00Z,00000200,01000000,0000.19,0000.21,-000.11,0000.84,-000.25,0000.05,0000.19,0000.32,-000.39,16.5,23.1,,00.0,0646.1,31.0
2021-01-25T15:27:00Z,00000200,01000000,-000.34,-000.21,0000.00,-000.07,0000.07,0000.12,0000.07,0000.09,-000.23,16.5,23.1,,00.0,0646.1,30.9
2021-01-25T15:28:00Z,00000200,01000000,0000.86,0000.09,0000.03,0000.23,-000.03,0000.25,-000.27,0000.09,0000.19,16.4,23.1,,00.0,0646.1,30.9
2021-01-25T15:29:00Z,00000200,01000000,0000.69,0000.16,-000.05,0000.35,0000.02,0000.09,-000.02,0000.10,0000.39,16.4,23.1,,00.0,0646.1,30.9
2021-01-25T15:30:00Z,00000200,01000000,-000.02,0000.22,-000.04,-000.22,0000.00,0000.05,-000.07,-000.06,-000.12,16.4,23.1,,00.0,0646.0,30.9
2021-01-25T15:31:00Z,00000200,01000000,-000.78,-000.05,0000.05,0000.07,0000.25,0000.04,0000.34,0000.34,0000.27,16.4,23.1,,00.0,0645.9,30.9
2021-01-25T15:32:00Z,00000200,01000000,-000.23,0000.06,-000.15,0000.18,0000.03,-000.16,0000.80,0000.14,0000.11,16.4,23.1,,00.0,0645.8,31.0
2021-01-25T15:33:00Z,00000200,01000000,0000.40,0000.13,-000.34,-000.14,0000.03,0000.24,0000.93,0000.71,0000.89,16.4,23.1,,00.0,0645.8,31.0
2021-01-25T15:34:00Z,00000200,01000000,0000.24,0000.23,-000.06,0000.10,0000.15,-000.30,0000.57,0001.05,0000.27,16.4,23.1,,00.0,0645.8,30.9
2021-01-25T15:35:00Z,00000200,01000000,-000.11,0000.33,-000.05,-000.19,0000.11,-000.14,0001.14,0000.51,0000.65,16.4,23.1,,00.0,0645.8,30.9
2021-01-25T15:36:00Z,00000200,01000000,-000.29,0000.18,-000.11,-000.12,0000.09,0000.12,0001.01,0001.05,0000.63,16.3,23.1,,00.0,0645.8,30.9
2021-01-25T15:37:00Z,00000200,01000000,-000.22,-000.09,0000.27,-000.22,0000.01,0000.08,0000.18,0000.71,0000.00,16.3,23.1,,00.0,0645.8,30.9
2021-01-25T15:38:00Z,00000200,01000000,0000.37,0000.19,-000.10,0000.26,0000.22,-000.18,0000.56,-000.08,0000.11,16.2,23.0,,00.0,0645.8,30.9
2021-01-25T15:39:00Z,00000200,01000000,0000.08,0000.19,-000.16,0000.04,0000.24,-000.11,-000.09,-000.11,0000.35,16.1,23.0,,00.0,0645.9,30.9
2021-01-25T15:40:00Z,00000200,01000000,-000.28,0000.07,-000.02,0000.03,0000.04,-000.04,-000.14,0000.33,-000.44,16.1,22.9,,00.0,0645.9,30.9
2021-01-25T15:41:00Z,00000200,01000000,0000.03,0000.02,-000.19,-000.20,0000.04,0000.12,0000.04,-000.55,-000.14,16.0,22.9,,00.0,0645.9,30.9
2021-01-25T15:42:00Z,00000200,01000000,0000.27,0000.17,0000.03,-000.37,0000.18,0000.07,0000.16,-000.04,0000.02,16.0,22.9,,00.0,0646.0,30.9
2021-01-25T15:43:00Z,00000200,01000000,-000.50,0000.19,0000.03,0000.29,-000.22,0000.12,-000.66,-000.54,-000.26,15.9,22.8,,00.0,0646.0,30.8
2021-01-25T15:44:00Z,00000200,01000000,-000.95,0000.23,-000.30,0000.42,0000.08,-000.15,-000.20,-000.15,0000.07,15.9,22.8,,00.0,0646.1,30.8
2021-01-25T15:45:00Z,00000200,01000000,-000.07,0000.03,-000.16,-000.37,0000.04,-000.13,-000.33,-000.38,-000.59,15.9,22.7,,00.0,0646.1,30.8
2021-01-25T15:46:00Z,00000200,01000000,-000.19,0000.10,0000.02,0000.40,0000.18,0000.08,-000.72,-000.55,-000.15,15.9,22.8,,00.0,0646.1,30.9
2021-01-25T15:47:00Z,00000200,01000000,-000.11,0000.03,-000.00,0000.42,-000.18,-000.15,-000.65,-000.37,-000.39,15.9,22.7,,00.0,0646.1,30.9
2021-01-25T15:48:00Z,00000200,01000000,0000.14,0000.04,-000.26,-000.18,-000.09,-000.21,-000.22,-000.58,-000.28,15.9,22.8,,00.0,0646.1,30.9
2021-01-25T15:49:00Z,00000200,01000000,0000.22,0000.43,0000.03,0000.38,-000.02,0000.05,-000.44,0000.05,0000.23,16.0,22.8,,00.0,0646.1,30.9
2021-01-25T15:50:00Z,00000200,01000000,0000.15,0000.22,-000.18,0000.60,0000.04,0000.00,-000.50,-000.66,-000.49,16.0,22.8,,00.0,0646.0,30.9
2021-01-25T15:51:00Z,00000200,01000000,0000.12,-000.13,0000.03,0000.07,0000.04,0000.12,0000.06,-000.07,-000.00,16.1,22.8,,00.0,0645.9,30.9
2021-01-25T15:52:00Z,00000200,01000000,0000.04,0000.27,-000.00,-000.40,-000.11,0000.02,0000.01,0000.12,-000.12,16.1,22.8,,00.0,0646.0,30.9
2021-01-25T15:53:00Z,00000200,01000000,0000.75,-000.07,0000.14,0000.18,0000.03,-000.09,0000.00,-000.28,-000.05,16.1,22.8,,00.0,0646.1,30.9
2021-01-25T15:54:00Z,00000200,01000000,-001.07,-000.09,0000.03,-000.77,0000.11,0000.08,-000.50,-000.29,0000.30,16.1,22.9,,00.0,0646.2,30.9
2021-01-25T15:55:00Z,00000200,01000000,0000.54,0000.16,-000.19,-000.08,0000.25,-000.11,-000.66,-000.33,-000.68,16.2,22.9,,00.0,0646.3,30.9
2021-01-25T15:56:00Z,00000200,01000000,0000.05,0000.01,-000.10,-000.07,0000.20,-000.06,-000.00,-000.12,-000.15,16.2,22.9,,00.0,0646.4,30.9
2021-01-25T15:57:00Z,00000200,41000000,,,,,,,0001.45,0001.37,0001.39,16.2,22.9,,00.0,0646.4,30.9
2021-01-25T15:58:00Z,00000200,61000000,,,,,,,-000.48,-000.59,-000.74,15.8,23.1,,00.0,0645.5,30.9
2021-01-25T15:59:00Z,00000200,21000000,,,,,,,-000.76,-000.65,-000.20,15.8,23.2,,00.0,0645.5,30.9
